Location: T. Spence Memorial Observatory
(32.7356°N, 82.2098°W)
Time: 23:58:35
(UTC-04:00)

Daily predictions for brighter satellites

Satellite Brightness Start Highest point End
(mag) Time Altitude Azimuth Time Altitude Azimuth Time Altitude Azimuth
CZ-4 DEB 3.5 20:52:07 10° SE 20:55:04 35° ENE 20:58:04 10° N
METEOR-M 4.4 20:50:16 10° S 20:55:37 76° WSW 21:00:58 10° NNW
Cosmos 494 Rocket 4.0 20:52:03 10° S 20:57:04 62° ESE 21:02:07 10° NNE
FengYun 1-2 T 4.3 20:53:22 10° SSE 20:58:53 84° WSW 21:04:23 10° NNW
Delta 168 3.9 20:56:39 10° SW 20:59:15 22° SSE 21:02:23 10° ESE
Meteor 2-4 Rocket 4.0 20:56:36 10° S 21:02:14 53° E 21:07:59 10° NNE
Cosmos 2333 Rocket 4.4 20:58:04 10° SW 21:03:02 32° WNW 21:08:03 10° N
Cosmos 1844 Rocket 4.3 20:59:28 10° NW 21:04:30 34° WSW 21:09:29 10° SSW
FENGYUN 3A 3.8 21:00:52 10° SSE 21:06:09 62° ENE 21:11:27 10° N
Cosmos 1025 Rocket 3.3 21:02:06 10° S 21:06:29 75° W 21:10:52 10° N
Cosmos 2297 3.9 21:02:30 10° NNW 21:08:08 57° ENE 21:13:45 10° SE
Cosmos 2228 4.3 21:04:42 10° NNE 21:08:21 25° ENE 21:11:51 11° SE
Meteor 1-19 Rocket 4.2 21:02:58 10° S 21:08:37 86° E 21:14:13 10° N
BREEZE-M R/B 4.4 21:06:45 10° WNW 21:09:35 29° SW 21:14:16 10° SSE
Resurs 01 Rocket 4.0 21:09:37 10° SSW 21:13:11 23° W 21:16:46 10° NW
H-2A R/B 2.8 21:12:52 10° SSE 21:16:48 78° ENE 21:20:46 10° N
Okean 2 3.4 21:13:54 10° S 21:18:02 65° E 21:22:11 10° NNE
Cosmos 1892 Rocket 3.7 21:14:28 10° S 21:18:52 81° W 21:23:21 10° N
GEOS 3 Rocket 3.9 21:14:25 11° SE 21:19:26 59° NE 21:24:34 10° NNW
Aureole 2 Rocket 2.6 21:19:32 10° SSW 21:23:36 88° ESE 21:27:18 10° NNE
SeaSat 1 4.1 21:24:32 11° E 21:27:44 20° NE 21:31:14 10° N
Cosmos 1331 Rocket 3.9 21:23:11 10° NNW 21:28:24 80° ENE 21:33:19 11° SSE
OAO 3 Copernicus 4.4 21:24:11 10° WNW 21:29:15 81° N 21:33:34 14° E
USA 186 2.8 21:32:48 10° S 21:35:33 37° W 21:38:09 10° NNW
CZ-2C R/B 0.3 21:36:18 25° S 21:37:29 88° W 21:39:47 10° NNW
Cosmos 1302 Rocket 4.2 21:34:11 10° N 21:39:20 56° ENE 21:42:59 19° SE
CZ-4B R/B 4.5 21:35:36 10° NE 21:39:54 27° E 21:42:10 20° SE
ATLAS 5 CENTAUR R/B 2.8 21:39:44 10° SSW 21:41:36 15° SSE 21:41:36 15° SSE
DEBRIS 4.0 21:40:13 10° NW 21:44:20 26° NNE 21:45:47 16° ENE
Cosmos 1726 Rocket 4.4 21:41:51 10° NNW 21:46:08 50° W 21:50:23 10° SSW
Cosmos 2278 Rocket 3.9 21:41:57 10° NW 21:46:49 30° WSW 21:51:39 10° SSW
ATLAS 3B R/B 3.4 21:40:49 10° S 21:47:39 36° ESE 21:54:26 10° NE
Cosmos 1461 3.6 21:44:00 10° NNW 21:48:00 39° ENE 21:49:44 26° ESE
SJ-11-01 4.2 21:44:22 15° SSE 21:48:12 85° ENE 21:52:52 10° N
Cosmos 1513 Rocket 4.4 21:43:07 10° N 21:49:22 71° E 21:54:25 16° SSE
Tsikada Rocket 4.1 21:43:24 10° S 21:49:42 63° E 21:56:00 10° NNE
Cosmos 2369 Rocket 3.8 21:55:43 10° NNE 21:59:37 19° ENE 22:01:39 16° E
ERS-1 Rocket 3.3 21:57:02 13° S 22:01:23 63° WSW 22:06:23 10° NNW
Cosmos 1602 Rocket 3.7 21:57:07 10° S 22:01:34 77° W 22:06:03 10° N
Cosmos 2058 Rocket 4.2 21:58:24 10° NNW 22:02:32 42° W 22:06:37 10° SSW
Cosmos 1666 3.0 21:59:46 10° NNW 22:03:39 66° W 22:05:58 23° S
APEX 3.9 21:59:31 10° NNW 22:03:58 82° WSW 22:07:15 25° SSE
Cosmos 2285 Rocket 4.4 21:58:49 10° NNW 22:05:03 62° WSW 22:10:15 15° S
Atlas Centaur 2 2.9 21:58:11 10° WSW 22:05:32 70° S 22:12:42 15° E
Abrixas rocket 2.3 22:02:09 10° NW 22:05:34 73° NE 22:06:15 52° ESE
USA 234 4.4 22:01:10 14° E 22:05:49 32° NE 22:11:28 10° NNW
Cosmos 1825 Rocket 4.3 22:05:59 32° ESE 22:06:26 33° E 22:10:24 10° NNE
Envisat 2.9 22:05:31 28° SSE 22:08:13 75° ENE 22:13:18 10° N
Meteor 1-15 Rocket 4.5 22:03:05 10° NNW 22:08:38 67° W 22:13:13 16° S
MetOp-B 4.5 22:06:59 31° SE 22:09:11 49° ENE 22:14:20 10° N
Cosmos 407 Rocket 4.3 22:11:19 30° ESE 22:11:32 30° E 22:16:05 10° NE
ISS -1.6 22:11:18 10° WSW 22:14:19 34° NW 22:17:22 10° NNE
CZ-3C R/B 3.7 22:11:55 10° SW 22:16:18 16° SSW 22:16:41 15° SSW
Cosmos 1812 Rocket 3.5 22:12:34 10° N 22:16:58 71° E 22:18:12 45° SSE
Cosmos 1939 Rocket 3.4 22:16:38 28° S 22:18:39 58° W 22:22:45 10° NNW
CZ-4 R/B 4.1 22:18:36 10° NNE 22:23:28 50° E 22:24:20 44° SE
Cosmos 1816 Rocket 4.5 22:18:50 16° S 22:24:07 88° W 22:30:29 10° N
H-2A R/B 3.4 22:22:24 18° SSW 22:25:03 35° W 22:29:00 10° NNW
SPOT 5 2.6 22:24:58 43° S 22:26:24 80° WSW 22:30:45 10° NNW
COSMOS 2455 3.4 22:22:46 10° SW 22:28:40 60° WNW 22:34:37 10° NNE
Cosmos 1515 3.6 22:28:51 61° SSW 22:29:28 83° W 22:33:20 10° N
USA 245 4.4 22:28:23 40° SE 22:30:20 59° ENE 22:35:39 10° N
CZ-4 SHROUD 4.0 22:31:44 45° WSW 22:31:48 45° W 22:34:50 10° NNW
Cosmos 1066 Rocket 4.2 22:30:02 40° SSE 22:32:01 67° E 22:37:45 10° NNE
Cosmos 1634 Rocket 4.2 22:27:05 10° N 22:33:06 53° E 22:34:40 43° SE
BREEZE-M DEB (TANK) 4.0 22:34:25 10° WNW 22:35:26 24° WNW 22:35:26 24° WNW
USA 81 4.1 22:31:36 10° N 22:36:50 61° E 22:37:42 53° SE
YAOGAN 6 2.8 22:39:45 67° NNE 22:39:45 67° NNE 22:43:06 10° N
Terra 3.3 22:43:54 22° ENE 22:43:54 22° ENE 22:47:13 10° NNE
Cosmos 489 Rocket 4.4 22:42:05 42° SSE 22:44:12 67° ESE 22:50:29 10° NNE
Meteor 2-12 Rocket 4.5 22:41:12 10° N 22:47:17 76° W 22:49:33 40° S
Cosmos 1346 Rocket 3.3 22:48:51 50° NNE 22:48:51 50° NNE 22:51:51 10° N
Cosmos 1992 Rocket 3.8 22:44:44 10° NNW 22:49:58 76° ENE 22:50:30 69° SE
Cosmos 1953 Rocket 3.5 22:52:36 80° NNE 22:52:36 80° NNE 22:56:48 10° N
Cosmos 1943 3.6 22:50:37 15° SSW 22:55:14 62° WNW 23:00:53 10° NNE
Cosmos 2279 Rocket 4.3 22:50:29 10° N 22:56:29 46° E 22:56:57 46° E
H-2A R/B 2.9 22:57:40 34° ENE 22:57:40 34° ENE 23:01:49 10° N
Lacrosse 4 Rocket 1.9 23:03:03 54° NNW 23:03:03 54° NNW 23:06:31 10° NNE
Cosmos 1932 4.5 23:03:16 56° E 23:03:16 56° E 23:08:52 10° NE
Meteor 1-21 4.1 23:03:34 71° SE 23:03:58 74° E 23:09:47 10° NNE
Cosmos 1943 Rocket 3.5 23:00:12 10° N 23:04:43 25° ENE 23:04:49 25° ENE
SeaSat 1 3.0 23:04:20 44° SW 23:04:54 46° WSW 23:09:38 10° NW
Geosat 4.0 23:00:49 10° NNE 23:05:51 80° WNW 23:06:36 64° SW
SPOT 1/Viking Rocket 3.7 23:05:20 59° SW 23:05:58 64° WSW 23:11:05 10° NNW
Milstar 3 Cent rocket 4.3 23:14:37 10° WSW 23:16:22 14° SW 23:16:22 14° SW
Cosmos 676 Rocket 4.1 23:21:48 70° W 23:22:00 71° WNW 23:27:20 10° NNE
DMSP B5D2-2 4.3 23:21:44 10° NNE 23:26:13 64° NNE 23:26:13 64° NNE
Cosmos 1140 Rocket 4.5 23:28:55 37° NE 23:28:55 37° NE 23:32:13 10° NNE
ARGOS 3.8 23:33:16 44° WSW 23:33:29 44° W 23:38:40 10° NNW
ATLAS 3B R/B 3.9 23:30:59 10° SW 23:38:15 44° NW 23:45:26 10° NNE
Cosmos 2369 Rocket 2.8 23:38:27 10° NNW 23:43:27 50° W 23:43:27 50° W
USA 234 3.2 23:48:30 68° SW 23:48:30 68° SW 23:54:58 10° NW
